Starlink 5458

operational
NORAD ID: 54764 Int'l Des: 2022-175 Owner: SPXS Country: US Constellation: starlink
LEOCIRCULAR

关于 Starlink 5458

正在加载描述...

实时位置

正在加载3D地球...

即将过境

高度历史

Altitude vs Time

uPlot chart will show altitude changes over time

两行轨道根数

1 54764U 22175G 26035.39457925 .00000752 00000-0 65331-4 0 9999
2 54764 53.2159 193.5177 0001264 86.6214 273.4923 15.08834461174895
Epoch: Feb 4, 2026 • Age: 14 hours

当前状态

高度 541.2 km
速度 7.59 km/s
星下点 -3.48°S, 56.72°E
发射日期 Dec 17, 2022
运行时间 3.1 years
类型 internet

技术详情

分类 Payload
质量 305.00 kg
干质量 290.00 kg
总质量 305.00 kg
长度 0.20 m
直径 2.80 m
跨度 9.00 m
形状 Box + pan
制造商 SPXS
平台类型 Starlink
阶段状态 In Orbit
所有者/国家 SPXS/US

大型星座

Loading constellations...